Theta_e
318 319 318 316 315 315 316 317 318 318 319 318 319 320 322 326 327 329 329 330 330 330 329 329 328 328 327 326 324 323 320 318 317 316 315 315 314 313 312 311 310 311 311 312 312 315 316 313 311 312 314 316 317 317 318 319 319 320 321 320 318 318 318 318 318 317 316 317 315 312 314 317 315 313 313 314 314 314 315 315 316 317 317 318 318 318 322 328
317 318 317 315 315 314 315 317 317 318 318 318 318 319 322 325 326 328 329 329 330 330 329 328 327 326 325 325 324 320 317 316 315 315 317 316 313 312 311 310 310 311 311 312 312 315 316 313 311 314 316 316 316 317 318 318 318 320 321 320 319 319 317 316 317 316 315 316 315 313 313 316 315 314 314 315 316 315 316 316 315 316 318 318 318 318 322 327
317 317 315 314 314 314 316 317 317 318 318 317 317 318 321 324 326 327 328 329 330 329 327 326 326 325 325 323 321 320 316 312 311 314 316 313 311 311 310 310 310 311 311 312 313 316 316 312 312 315 316 316 316 316 318 318 318 318 319 321 319 319 316 314 314 314 313 315 315 314 313 314 315 314 314 316 316 315 316 317 316 316 317 318 318 318 321 326
317 317 314 314 314 314 316 317 317 318 317 316 316 318 321 323 325 326 327 328 328 326 324 324 325 324 320 314 314 316 313 309 309 314 315 311 311 311 309 309 310 311 312 313 314 316 315 312 314 316 316 316 316 316 318 317 317 317 318 319 318 316 316 313 312 312 312 313 314 313 313 314 314 313 314 315 316 316 317 317 316 316 316 316 318 318 319 323
316 315 313 314 315 314 316 317 317 316 316 316 316 318 320 321 324 325 325 325 324 323 322 323 323 318 313 309 309 310 312 313 311 312 313 311 311 309 309 310 310 312 313 314 315 316 313 312 315 316 316 317 317 317 316 315 317 317 315 315 314 313 315 313 311 312 311 312 313 313 314 315 314 313 314 315 316 316 316 315 315 316 315 315 316 317 318 321
314 314 313 315 316 314 316 317 315 315 316 316 316 317 318 319 322 323 323 323 322 321 322 322 317 311 309 309 308 307 312 316 313 311 311 310 310 309 309 310 311 313 314 315 315 314 311 312 315 315 316 317 316 317 315 314 316 317 314 312 312 312 314 313 311 312 311 312 313 313 314 314 313 314 313 314 315 316 315 314 314 315 315 315 315 316 317 319
314 313 313 315 316 314 315 316 315 315 316 316 316 317 317 318 320 321 322 322 321 320 320 318 312 309 309 308 307 308 310 313 312 312 312 310 309 309 310 311 312 314 315 314 313 312 310 313 315 315 317 316 315 316 314 314 315 317 316 312 312 311 312 312 311 312 311 312 312 312 313 313 314 314 312 313 315 315 315 314 314 314 314 315 315 315 316 318
314 313 313 314 315 314 315 315 315 316 316 316 316 316 315 316 318 319 321 321 320 319 316 312 309 309 309 307 308 309 310 311 310 311 312 310 309 310 310 312 314 315 314 313 312 311 311 314 315 315 316 315 315 315 314 315 315 316 315 312 312 311 311 311 311 311 311 312 312 312 313 312 312 313 312 313 314 314 314 314 314 314 314 314 315 315 315 316
314 314 314 314 314 313 314 315 315 316 315 315 316 316 315 315 316 318 320 320 319 316 312 310 309 308 308 307 308 310 310 311 310 310 312 311 310 311 311 313 315 315 313 312 311 311 312 314 314 314 314 314 315 315 314 315 316 316 314 312 312 311 310 310 310 310 311 311 311 313 313 312 311 311 313 314 314 314 314 314 314 314 314 314 314 315 315 315
314 314 314 315 314 313 313 314 315 315 315 314 315 315 315 315 316 318 318 318 316 312 310 309 309 308 307 308 308 309 311 311 309 310 312 311 310 311 312 315 316 315 312 311 312 312 312 314 314 314 314 314 314 313 313 315 315 314 312 312 312 311 310 311 311 310 311 311 311 313 313 312 311 311 314 314 313 314 313 314 314 314 314 314 314 314 315 314
314 314 314 314 314 313 312 313 314 314 314 315 315 314 314 313 315 316 315 314 311 309 310 309 309 308 307 308 309 309 311 311 309 309 312 312 311 312 314 315 316 314 311 311 313 312 312 313 313 313 314 314 313 312 312 313 313 313 313 313 311 311 312 311 312 311 312 312 312 313 313 311 310 312 314 313 313 314 314 314 314 314 314 314 314 314 314 314
313 313 313 314 313 312 312 312 313 314 314 314 314 313 312 312 313 313 312 310 309 309 309 309 308 308 308 308 308 310 312 312 310 309 311 312 312 313 315 315 314 312 311 311 313 313 312 313 313 313 314 314 313 312 312 312 312 312 313 314 312 312 313 311 312 312 312 313 311 312 312 313 313 313 314 313 313 313 313 314 314 314 314 314 314 314 315 314
313 313 313 313 312 311 311 311 312 313 313 313 312 311 311 311 311 311 310 309 309 309 308 308 308 308 308 308 308 309 312 312 311 310 311 313 313 314 314 313 311 311 311 312 313 313 313 313 313 313 313 314 313 312 313 311 312 313 313 314 314 314 314 311 311 311 312 312 311 311 312 314 314 313 313 313 313 313 313 314 314 314 314 314 314 314 315 314
312 313 313 311 310 311 311 312 312 312 312 312 311 310 310 310 309 309 308 308 308 308 308 308 308 307 308 309 309 309 310 312 312 313 312 313 315 315 313 311 310 311 311 311 313 313 313 312 312 313 313 313 312 312 312 311 311 313 312 314 315 315 314 311 310 311 313 313 311 310 312 314 313 311 310 311 312 313 313 314 313 314 314 314 314 314 315 314
313 313 313 311 310 310 311 312 312 312 311 311 309 309 309 308 308 308 308 308 308 308 308 308 307 308 309 309 310 309 309 311 313 314 314 315 317 314 311 310 310 310 310 311 313 313 312 312 312 313 312 312 313 313 312 312 311 311 313 314 314 314 313 312 310 310 313 313 311 311 313 314 314 312 310 311 312 312 313 313 313 313 314 314 314 314 314 314
313 313 313 311 310 310 311 312 312 312 311 310 308 308 308 307 308 308 308 308 308 308 308 308 307 308 309 309 311 311 309 309 312 314 314 315 316 313 310 310 311 311 312 312 313 312 312 312 312 312 311 312 313 314 313 313 312 312 313 315 314 313 313 312 311 309 311 312 312 311 313 313 315 313 311 312 312 312 313 313 313 314 313 314 314 314 314 314
313 313 312 311 310 310 311 311 311 311 310 309 308 307 307 307 307 307 307 308 308 308 307 307 308 308 308 309 311 312 310 309 311 314 315 316 314 311 310 312 312 313 313 313 312 312 312 312 312 311 312 312 313 315 314 313 314 313 313 314 313 312 312 312 312 310 309 312 313 312 312 313 314 314 313 312 312 312 313 314 314 315 315 315 314 315 315 315
312 312 311 311 310 310 311 311 311 310 309 308 308 307 307 307 307 307 307 307 307 307 308 308 308 308 308 309 312 312 311 310 311 314 315 314 312 311 312 313 314 314 313 313 312 312 312 312 312 313 313 312 313 314 314 313 314 314 313 313 312 311 311 311 312 311 310 312 313 313 313 313 314 314 314 313 313 313 313 314 315 315 316 316 315 315 315 315
312 311 311 310 309 309 311 310 310 310 308 308 308 307 307 307 307 307 307 307 308 308 309 310 308 309 309 309 312 313 312 311 312 314 314 313 312 313 314 314 314 313 313 313 313 313 313 313 313 314 313 312 313 314 315 315 315 314 314 313 313 312 311 311 311 309 309 312 313 313 314 314 314 315 315 315 313 313 313 314 315 316 316 316 316 316 316 316
311 311 310 309 309 308 309 310 310 309 308 308 308 307 308 309 309 310 309 307 309 309 309 310 308 310 310 309 312 313 313 313 313 313 313 313 313 314 314 314 313 313 313 314 314 313 313 314 314 314 314 313 313 313 313 314 314 314 313 314 315 314 311 311 311 309 308 313 314 314 314 314 314 314 315 315 313 312 313 314 314 315 316 316 316 316 316 316
311 311 310 309 308 308 308 309 310 309 308 308 307 307 309 310 311 311 311 309 309 309 309 309 309 311 310 309 312 313 313 313 313 313 313 313 314 314 313 313 313 313 313 313 314 312 312 314 315 314 313 312 311 310 310 311 312 313 312 313 314 314 312 311 311 309 307 312 314 312 312 314 315 315 316 316 313 313 314 314 314 314 314 315 315 315 316 316
311 310 310 309 309 308 308 309 309 308 308 308 307 308 308 309 310 310 309 309 309 309 309 309 310 311 310 310 313 313 313 313 313 314 313 313 314 314 313 312 313 313 312 312 313 313 313 315 314 311 309 309 308 308 310 311 312 313 313 313 312 313 312 310 310 309 308 312 314 313 313 315 316 316 316 314 312 312 311 311 311 311 312 312 313 314 314 315
311 310 310 309 308 308 308 308 308 308 309 308 308 308 308 309 310 308 308 310 310 309 309 310 311 311 311 312 313 313 314 314 313 314 313 313 313 314 313 313 312 312 312 312 314 314 313 313 310 307 308 310 309 310 312 312 312 314 314 312 313 314 313 312 312 309 307 309 312 312 313 315 315 314 312 310 308 308 308 308 309 309 310 311 311 312 313 313
312 310 309 309 308 308 308 308 309 309 309 308 308 308 308 309 310 308 309 310 311 310 309 309 311 312 312 313 313 313 313 313 314 314 313 313 313 313 313 312 312 312 312 312 313 314 313 309 305 305 309 311 311 311 313 313 312 314 316 314 314 314 314 313 312 309 308 307 308 310 313 314 314 313 312 309 307 308 309 310 311 311 312 312 312 312 312 313
312 311 309 309 309 308 307 309 310 309 308 308 308 308 308 309 309 308 309 310 310 310 309 309 311 312 312 312 312 312 313 313 314 314 313 313 313 313 312 311 312 313 312 311 312 313 312 305 303 307 309 311 312 312 315 315 313 314 315 315 314 313 314 313 312 311 312 312 309 309 311 313 314 313 312 310 309 310 311 312 312 312 313 313 313 312 312 313
314 313 310 309 309 307 308 310 310 308 308 308 308 308 308 309 309 308 310 312 310 309 310 311 311 312 312 312 312 312 313 314 313 314 313 313 313 313 312 311 311 311 311 310 311 312 308 304 305 309 311 313 313 312 315 316 313 313 313 312 311 314 316 313 313 314 314 313 309 307 311 312 313 314 312 310 310 312 312 313 313 312 312 313 313 313 313 314
315 314 312 310 308 307 308 310 309 308 309 308 307 308 309 309 308 307 309 310 310 309 309 309 309 312 312 312 312 311 312 313 313 314 313 313 313 313 313 312 311 310 308 309 312 311 306 305 307 310 312 314 313 313 314 314 313 314 313 311 311 315 317 316 315 315 314 313 311 310 313 312 312 314 311 309 311 313 313 313 313 312 312 312 313 314 315 316
315 314 314 312 309 307 307 308 308 308 309 308 308 309 309 309 307 308 309 308 309 309 309 307 308 311 312 312 311 310 312 313 314 314 313 313 313 312 313 312 312 311 308 309 313 311 308 310 310 311 313 313 313 314 313 313 314 314 309 310 312 314 317 317 316 314 312 312 313 313 312 311 311 314 311 309 311 313 313 312 312 312 312 312 313 314 315 316
313 313 313 312 310 307 306 308 307 307 308 308 308 309 309 308 307 310 311 309 309 309 308 308 309 311 311 311 310 311 312 312 313 314 312 313 312 312 313 311 311 311 309 311 314 311 309 310 309 311 313 312 312 310 310 315 315 311 306 310 312 313 314 316 314 313 311 312 313 312 310 309 311 316 314 310 311 312 313 312 311 311 311 311 312 313 314 315
311 312 311 311 310 308 307 308 307 307 309 308 309 309 308 308 307 309 310 310 310 308 307 308 310 311 310 310 310 310 311 311 312 313 312 312 312 311 311 311 311 312 313 313 313 310 308 308 308 311 312 310 308 306 307 312 311 308 310 313 314 313 313 313 312 311 311 312 312 308 307 309 309 314 315 311 310 311 312 312 311 312 311 311 312 312 314 314
310 310 310 310 310 308 307 308 307 308 309 308 309 309 308 309 309 309 309 311 311 308 307 308 309 311 310 310 311 311 311 311 311 312 312 311 311 311 311 312 312 313 314 314 313 311 310 310 310 310 307 307 309 308 306 307 307 310 314 314 314 313 313 312 311 311 312 312 309 305 305 308 309 311 313 310 308 309 312 313 311 312 312 311 311 312 313 314
309 309 309 310 310 308 308 307 307 309 309 308 310 308 308 308 308 309 310 310 311 309 308 308 309 310 310 311 313 312 312 312 311 312 313 312 311 312 313 314 314 314 313 313 314 314 313 312 311 309 307 308 312 312 308 308 309 312 314 314 313 314 313 313 313 312 312 311 306 305 306 308 310 312 311 309 309 309 311 312 312 312 312 311 311 311 312 313
309 309 309 310 310 308 308 308 308 309 309 309 309 308 309 308 307 310 310 309 311 310 309 310 309 310 311 311 313 313 313 312 311 312 312 312 313 313 313 313 315 317 315 314 315 314 314 314 311 311 310 309 312 313 311 311 311 312 315 314 313 314 313 313 311 309 310 309 305 305 307 309 311 312 311 311 310 309 309 309 310 311 311 311 311 311 312 313
309 309 310 311 310 308 308 308 308 310 310 309 309 308 310 309 309 312 311 309 310 308 309 311 310 310 311 312 313 312 313 312 310 311 312 312 313 313 313 311 312 316 316 315 315 315 315 314 312 313 311 310 311 311 312 313 312 313 316 315 313 314 314 312 311 311 310 309 306 305 307 311 312 310 309 309 308 307 307 307 309 310 310 310 311 311 312 312
309 310 310 312 312 310 309 309 309 310 310 309 309 309 310 309 309 311 310 308 310 310 310 311 311 312 312 313 313 312 313 313 311 312 312 313 313 313 313 311 311 314 315 314 313 313 315 313 310 309 308 309 311 310 310 313 313 311 311 313 313 314 313 309 307 309 308 309 309 308 309 312 312 309 307 306 306 306 306 307 308 310 310 311 311 311 311 312
311 311 312 312 313 311 310 309 309 311 310 309 309 309 310 311 311 312 310 308 310 310 310 311 312 313 313 313 313 311 312 313 312 312 313 313 314 313 313 313 312 312 314 315 314 312 312 312 311 309 308 308 310 309 308 311 313 311 310 312 310 311 314 310 305 304 305 309 311 310 311 312 311 310 308 307 308 307 306 306 308 310 311 310 311 311 311 312
312 312 312 312 312 312 310 310 311 311 309 308 309 310 312 312 310 311 311 309 310 310 310 312 312 312 312 312 313 312 312 314 313 313 313 313 313 313 313 313 311 312 313 313 314 314 313 312 311 311 311 308 307 307 307 307 309 312 313 312 308 309 312 311 309 308 307 309 310 309 310 310 310 310 309 308 310 309 307 307 308 310 311 311 311 311 311 312
312 312 312 312 313 312 310 311 312 311 309 308 310 313 314 312 309 309 310 308 310 311 311 313 312 312 312 312 313 312 313 314 313 313 313 312 313 313 312 312 311 311 311 311 313 316 315 313 310 309 312 310 307 310 311 308 307 310 311 310 310 311 311 309 310 311 310 310 310 308 307 308 310 311 310 310 311 309 308 308 308 310 311 311 311 311 311 312
313 313 313 313 313 312 311 312 312 311 309 309 310 312 314 314 309 308 308 308 311 311 311 313 313 311 312 312 313 312 312 313 312 312 314 313 313 312 312 313 313 311 309 309 313 316 315 315 313 310 310 311 310 312 314 312 308 307 307 308 310 312 311 310 310 310 311 310 310 309 307 308 311 311 310 311 311 310 309 308 309 312 312 311 311 311 312 312
313 313 313 314 314 312 312 312 311 311 310 310 311 311 313 314 310 307 308 309 311 311 312 315 313 311 313 313 313 312 312 313 312 312 313 312 312 311 311 312 312 310 308 308 313 315 313 313 314 311 310 311 312 312 314 315 311 308 309 309 310 310 309 310 309 308 309 309 309 309 308 310 311 310 310 311 311 310 309 309 311 312 311 311 311 311 312 312
312 312 312 313 315 314 312 313 312 311 311 311 313 313 312 313 311 309 308 309 310 309 310 313 313 313 314 313 312 312 312 313 312 312 313 311 311 312 311 311 311 310 309 309 313 315 312 312 314 313 311 312 313 310 309 312 312 311 310 310 312 311 310 311 311 307 307 308 308 308 309 311 311 307 307 308 308 309 310 311 312 311 311 311 311 311 312 312
310 311 311 313 316 314 312 313 312 311 312 311 311 313 312 311 311 310 309 309 311 310 309 312 314 315 315 312 312 312 312 313 312 312 314 312 312 312 310 310 310 310 311 312 313 313 312 313 314 312 312 312 310 306 303 306 310 311 310 311 312 312 312 313 313 310 306 305 306 306 308 311 309 303 303 305 304 306 309 312 311 311 310 310 311 311 312 312
307 308 309 312 315 314 313 313 312 312 312 310 310 311 310 311 311 311 310 310 312 311 312 314 313 312 314 313 313 312 311 312 312 312 313 313 311 310 308 309 310 310 311 313 313 311 311 315 314 311 311 310 308 307 304 305 309 310 310 310 311 312 313 312 311 311 309 307 308 308 309 312 310 304 302 303 301 302 306 311 311 310 310 310 310 310 311 312
305 306 307 310 313 313 313 313 312 313 311 310 311 311 310 310 311 311 312 313 313 313 316 317 311 308 313 314 312 312 312 313 313 312 314 314 311 307 306 308 310 311 311 312 313 312 312 315 315 312 312 312 311 311 310 309 310 310 312 311 311 313 312 309 308 310 310 310 311 310 311 312 311 306 303 302 301 302 305 309 311 310 310 310 309 310 310 312
304 305 306 307 310 312 312 311 312 313 311 310 312 312 311 311 309 309 312 312 311 313 316 314 309 310 316 315 312 312 313 314 315 314 314 314 311 307 306 307 309 310 310 311 312 312 314 316 315 313 315 315 314 314 315 314 311 311 313 313 312 312 312 311 310 310 310 310 310 311 312 311 309 308 306 303 302 304 306 308 309 310 310 310 309 310 310 311
304 305 305 306 308 309 308 308 310 312 310 310 312 312 313 313 310 309 311 311 310 310 312 312 310 312 315 314 313 312 312 314 315 314 313 312 311 309 307 306 307 309 309 310 310 312 316 316 314 314 315 315 315 316 317 317 314 313 315 314 313 311 311 313 312 310 311 311 309 311 314 312 310 309 308 305 304 306 307 307 308 309 310 310 309 310 310 311
303 304 304 305 307 307 306 307 309 312 311 310 311 311 313 314 311 310 311 311 311 311 312 312 313 314 314 312 313 313 313 313 312 312 313 312 311 310 307 306 307 308 309 309 309 313 316 314 313 315 315 315 316 316 315 317 316 315 315 314 312 311 311 313 313 313 314 312 310 313 315 313 311 310 310 307 306 307 308 308 308 309 310 309 309 309 310 311
302 302 301 303 306 306 307 307 309 311 311 310 311 311 312 313 313 313 312 310 310 311 313 314 313 315 314 311 312 314 313 313 312 312 312 312 312 312 310 308 307 307 309 308 308 312 315 313 314 315 314 314 315 313 314 315 315 315 316 314 312 311 311 313 314 314 314 313 313 315 315 313 312 311 310 309 307 309 309 308 309 309 310 309 309 310 311 311
300 301 301 302 303 304 306 307 308 310 311 311 312 311 312 312 313 313 312 312 312 312 314 316 316 315 314 312 313 314 313 312 313 313 312 312 313 314 312 311 309 307 308 310 309 310 312 314 316 314 312 313 313 312 313 314 314 315 315 314 312 311 311 312 313 314 314 313 315 317 315 313 312 312 311 310 308 309 309 308 308 309 310 310 310 310 311 311
300 301 301 302 302 302 304 306 308 310 311 311 311 311 311 312 312 312 312 313 314 313 313 316 317 314 313 313 314 315 313 313 315 315 313 312 313 313 313 313 311 308 309 310 310 309 310 315 316 313 311 313 313 311 311 312 313 315 314 313 312 311 312 312 313 314 313 313 315 315 314 313 312 310 310 309 308 308 308 308 308 308 310 310 310 310 311 311
300 301 301 303 303 302 304 305 307 310 311 311 311 310 311 311 311 313 312 310 313 314 312 313 315 313 312 314 316 315 313 313 315 314 312 312 312 312 313 313 312 311 311 310 311 311 310 313 314 312 311 313 311 309 310 310 311 313 314 313 312 311 312 312 313 314 313 313 314 313 312 312 311 309 309 307 306 307 308 308 308 308 309 310 310 310 311 311
300 300 301 302 302 301 302 304 306 308 310 310 310 310 311 311 311 312 313 310 310 312 312 312 313 314 314 314 315 314 311 311 311 310 309 311 310 310 311 311 310 311 311 311 312 313 312 312 312 311 312 312 308 307 310 310 310 311 312 313 312 312 312 312 312 313 313 313 313 312 312 313 311 311 312 310 307 307 308 308 308 308 309 309 310 311 311 311
Wind_Speed
33 32 31 30 31 33 34 33 32 31 30 32 33 32 34 34 33 33 32 31 31 31 32 31 31 29 28 26 23 21 19 18 17 21 24 22 17 16 15 12 12 14 15 16 19 18 16 16 17 18 17 14 12 13 11 9 9 6 2 1 3 2 2 4 5 3 1 4 8 10 13 8 5 7 5 5 6 6 5 7 9 7 7 6 1 6 18 22
32 30 29 30 30 32 35 33 31 31 30 32 34 32 33 34 34 33 32 32 31 31 32 31 30 28 25 23 22 21 18 17 18 23 25 19 16 16 15 14 13 14 17 18 20 20 18 19 20 19 16 12 11 12 10 8 7 3 1 1 2 2 2 2 3 4 1 4 9 10 13 8 4 8 7 5 5 6 6 6 9 9 9 9 4 7 17 21
31 29 28 29 30 34 36 33 32 32 31 32 34 32 33 36 34 33 32 32 32 32 31 30 29 27 25 23 22 20 16 14 20 27 22 17 18 17 15 15 14 16 18 19 21 19 18 19 21 20 16 11 10 13 8 7 5 1 2 2 2 3 2 2 3 3 1 4 8 10 11 7 4 9 7 4 4 5 7 6 8 9 11 14 9 8 15 21
30 28 28 29 30 35 35 32 32 31 30 31 32 32 34 37 35 34 34 33 33 31 30 29 28 26 24 22 18 16 13 9 19 27 20 16 19 17 16 15 16 18 19 19 20 18 17 18 21 20 14 8 9 12 8 6 5 2 2 0 3 3 2 3 3 3 2 3 8 10 10 7 6 10 8 5 4 5 8 8 9 9 10 13 13 11 14 21
30 29 29 30 31 33 34 32 31 30 30 31 31 31 35 37 36 36 35 34 33 31 31 29 27 25 23 21 17 15 12 5 12 18 17 17 18 18 17 16 19 20 20 19 18 18 17 19 23 18 9 6 8 9 6 7 6 3 1 3 3 2 2 3 4 4 4 4 8 11 9 8 9 9 9 8 6 2 3 5 7 9 9 10 12 13 14 20
29 30 31 32 32 34 34 30 29 31 30 31 30 31 35 37 38 38 36 34 33 31 30 28 26 24 23 21 18 18 16 7 5 6 13 17 16 19 18 17 21 20 20 18 18 19 18 22 23 15 7 6 7 6 7 9 7 3 2 2 4 3 2 3 4 4 6 6 8 9 6 8 9 6 9 13 10 3 2 2 2 4 9 10 10 12 14 17
31 32 34 33 32 33 33 29 30 31 30 31 30 30 35 37 38 37 36 35 33 31 29 28 26 24 23 22 20 20 21 17 7 5 8 16 16 19 18 19 23 20 20 19 20 20 20 25 21 14 9 5 5 6 9 10 5 2 3 4 5 5 3 2 4 5 7 6 6 8 6 6 8 4 6 13 14 11 8 4 3 2 4 9 11 11 13 15
33 33 34 34 31 32 32 30 31 31 30 30 28 31 35 36 37 37 36 35 33 31 29 28 26 26 24 23 22 20 21 24 17 10 7 16 18 19 20 22 23 19 20 20 21 22 23 26 22 15 8 4 7 9 11 10 2 1 4 6 5 5 4 5 6 6 7 6 7 8 5 4 6 4 4 10 12 13 14 12 9 7 4 6 10 12 13 14
34 33 34 34 30 32 33 30 32 31 30 30 28 31 34 35 36 36 35 34 33 31 29 28 27 26 24 25 23 16 19 25 20 11 8 17 19 20 22 24 23 20 20 20 21 23 24 26 24 16 6 6 11 10 12 9 2 3 6 8 7 5 6 7 7 6 7 8 8 7 3 2 5 4 6 11 12 12 14 14 14 14 12 9 8 12 14 13
33 33 33 32 29 32 34 31 31 30 28 28 28 31 33 34 35 35 35 33 32 31 29 28 27 26 25 26 20 10 17 24 20 12 7 17 21 21 25 23 22 20 19 21 21 23 25 25 24 16 10 12 11 9 12 6 3 11 12 10 9 7 7 5 5 7 8 7 5 5 2 2 3 2 4 6 8 9 11 14 14 14 14 13 10 11 14 15
32 32 32 31 28 30 33 32 31 29 28 26 29 31 31 34 34 34 34 32 31 30 29 28 27 26 25 26 20 10 15 18 18 15 9 15 22 22 24 21 20 19 19 22 21 23 25 21 21 15 8 11 11 7 7 5 9 18 17 12 9 7 8 5 5 6 5 4 3 3 2 2 3 3 4 4 6 4 4 8 13 14 13 14 12 11 13 16
31 32 31 30 29 30 33 32 31 29 27 26 29 30 30 33 33 33 32 31 31 29 29 28 27 26 24 24 22 16 14 12 14 15 11 14 21 21 21 19 19 18 19 22 21 22 21 18 19 13 8 14 12 6 7 10 15 16 12 8 5 5 5 5 3 3 1 2 4 3 2 4 5 6 5 6 7 5 4 4 8 12 12 12 13 12 13 16
30 30 29 28 29 31 33 33 31 29 27 27 29 29 30 32 32 32 31 30 30 28 27 27 26 25 22 18 20 19 13 9 11 13 12 15 20 20 19 18 19 19 19 20 19 19 18 17 18 13 16 18 9 7 12 13 13 11 3 1 5 5 2 4 3 1 1 2 4 3 3 3 5 6 6 7 7 6 5 5 6 10 12 13 13 13 12 14
29 28 26 25 29 32 34 33 30 28 27 27 29 30 30 31 30 30 30 29 29 27 26 26 25 24 20 13 15 21 16 9 10 11 13 17 20 20 19 18 19 19 18 18 18 17 17 17 15 13 17 17 13 15 13 7 5 6 3 1 2 5 3 5 4 2 2 3 4 4 5 3 3 3 5 8 8 7 6 5 6 7 10 13 14 15 14 14
27 26 25 24 28 32 33 31 28 26 26 26 29 30 30 30 30 30 29 28 27 27 26 25 25 22 17 10 10 19 20 13 10 11 14 18 19 19 19 19 19 18 17 17 17 17 17 15 12 11 13 17 20 15 7 3 2 2 4 4 1 3 3 4 4 3 0 2 2 3 5 4 1 2 1 4 6 6 6 6 8 8 9 11 14 16 17 16
26 25 25 24 26 31 32 31 27 26 26 27 29 30 29 28 29 29 28 28 26 27 26 25 26 21 12 8 9 15 20 17 12 12 16 20 19 18 18 18 17 16 15 15 16 17 18 14 12 13 13 14 14 8 6 4 2 1 3 4 4 4 3 2 3 4 3 1 1 2 3 3 1 2 2 3 3 1 3 5 6 8 8 10 12 15 17 17
26 26 26 26 27 30 32 31 28 27 27 28 29 28 28 27 28 28 27 27 25 25 25 23 25 17 6 8 10 13 19 19 15 13 17 21 18 16 18 18 17 17 16 16 18 18 17 13 12 11 7 5 5 7 8 5 4 3 1 1 2 3 3 3 3 2 3 1 3 2 4 6 1 1 2 3 4 7 9 8 7 8 9 10 12 13 16 17
25 26 26 28 29 30 32 31 30 30 29 29 28 27 27 26 26 26 26 26 25 22 19 19 21 12 6 11 13 13 18 19 16 15 19 22 18 17 19 18 18 18 17 16 15 14 11 9 8 6 3 2 4 8 8 5 7 8 5 4 2 1 3 2 2 1 2 2 4 3 5 11 8 6 8 9 11 12 12 14 13 12 12 13 14 15 16 16
25 25 28 28 30 32 32 32 32 30 31 30 29 29 27 26 25 23 27 28 24 15 8 17 23 6 3 16 16 13 17 18 17 17 21 22 19 19 18 17 20 20 17 12 9 8 7 6 4 5 6 6 7 7 5 4 7 10 8 5 5 5 3 1 2 2 1 3 5 6 7 10 9 9 10 11 11 12 13 16 16 15 14 15 15 16 17 17
25 25 28 28 29 31 31 33 31 31 35 33 34 34 27 26 18 14 26 27 20 10 2 21 27 4 4 19 19 15 17 17 18 20 22 22 21 20 18 18 20 17 11 6 5 5 6 6 6 7 8 10 7 3 3 4 6 9 7 3 4 3 2 1 2 3 1 3 4 4 6 10 10 11 12 10 8 11 13 14 16 16 16 16 16 17 18 19
26 26 27 27 29 30 30 32 31 33 36 34 39 33 24 26 15 14 25 16 11 10 8 25 25 5 8 23 22 20 20 16 16 22 21 22 24 19 16 16 14 9 4 4 5 4 4 7 7 4 5 8 6 4 6 7 6 8 6 5 3 1 2 2 1 2 2 2 2 1 5 10 10 11 12 9 6 8 10 10 13 15 17 17 18 19 20 21
26 28 27 27 29 29 31 31 31 36 36 36 40 27 25 31 17 23 29 11 5 9 17 27 16 6 14 22 24 23 20 12 13 22 22 24 25 16 13 13 9 5 3 4 7 4 4 6 4 5 6 10 7 3 7 8 6 5 4 5 3 2 3 2 1 2 1 2 1 1 4 9 9 10 10 7 5 7 8 10 13 15 17 17 18 19 21 23
24 28 28 27 29 29 31 31 32 38 36 38 37 23 27 28 15 27 28 10 7 9 19 23 10 12 20 19 22 22 18 11 11 21 23 25 22 15 14 10 5 6 4 7 8 7 6 3 3 7 9 11 6 2 7 8 4 3 3 5 3 2 2 2 3 2 1 1 2 1 4 8 7 6 4 2 4 4 4 6 9 10 12 13 13 16 18 19
22 26 27 27 29 28 29 31 33 35 34 38 33 22 28 24 17 29 22 8 5 5 15 20 9 15 20 18 20 17 15 12 13 21 24 25 20 13 13 9 6 7 5 6 7 6 3 3 3 6 6 8 8 5 7 7 3 0 2 4 3 5 3 1 4 4 1 0 1 1 5 5 3 3 3 1 2 2 2 1 1 2 4 6 7 10 11 12
21 24 27 27 28 28 30 30 30 33 36 38 30 24 30 23 22 30 15 5 3 4 9 15 8 12 16 17 16 13 13 11 13 22 24 23 19 12 10 8 6 5 4 5 5 4 2 2 4 6 3 6 8 7 6 6 4 2 3 2 2 7 6 4 6 5 3 3 1 2 5 3 1 2 3 1 2 2 2 3 3 3 1 1 2 4 6 7
21 22 25 27 27 30 31 27 29 35 37 35 30 28 30 25 27 27 10 3 3 2 5 9 9 10 11 14 16 15 11 7 12 21 23 22 19 13 9 5 2 2 5 5 4 1 2 2 3 4 6 6 6 6 4 3 4 3 2 2 3 7 9 8 7 4 2 2 2 1 4 2 0 2 3 1 0 3 3 3 4 4 4 3 3 5 6 8
20 20 22 24 27 33 31 27 33 38 36 32 31 31 29 28 30 21 5 2 3 4 5 6 8 11 11 14 19 14 6 9 14 16 19 19 16 14 10 5 2 3 4 4 3 1 4 4 1 3 7 6 6 6 4 5 5 3 1 3 7 8 8 8 6 2 0 1 1 0 2 3 3 1 2 0 2 4 3 3 5 5 5 6 6 8 10 11
20 19 19 21 25 33 32 31 38 41 35 32 33 33 30 31 28 14 3 2 4 5 6 5 6 12 14 17 17 9 7 14 11 9 16 16 13 10 6 4 5 5 2 2 4 1 3 5 5 5 6 5 4 1 2 5 3 1 0 2 5 6 6 5 3 2 2 1 3 1 3 4 4 1 2 1 3 4 3 3 4 5 6 7 9 11 12 14
21 19 19 21 24 30 30 29 37 39 33 31 33 32 32 32 22 6 1 3 3 4 5 7 8 11 15 14 10 7 10 9 3 8 16 12 9 7 4 7 10 9 4 3 2 1 1 3 4 3 4 4 2 4 2 1 2 4 5 5 6 5 5 3 2 3 2 3 4 2 2 4 4 2 2 1 2 5 4 3 3 4 6 9 13 14 16 17
22 20 21 24 26 31 28 26 34 35 31 32 33 33 33 27 13 3 3 4 4 3 4 8 8 10 14 10 4 4 5 2 4 13 12 6 6 6 9 13 12 9 4 6 6 2 1 2 2 1 1 4 5 6 5 4 5 11 8 7 8 5 3 3 2 2 1 4 2 2 3 3 3 2 3 2 2 3 6 5 4 5 7 10 14 17 19 21
24 22 24 27 28 30 27 27 34 34 32 33 33 34 29 14 3 3 4 3 5 3 3 5 5 10 15 10 4 3 3 2 5 12 9 4 5 7 10 10 7 5 3 4 5 2 2 4 2 2 4 7 6 7 7 4 5 6 4 6 7 3 1 2 2 0 4 4 1 3 3 3 4 2 1 0 1 1 5 8 8 8 9 10 15 18 21 23
25 23 27 29 27 27 26 28 34 34 32 32 35 33 19 5 3 5 4 5 5 4 4 5 4 8 12 8 4 4 3 2 3 6 6 4 4 5 4 4 5 5 4 5 3 2 3 3 2 2 4 5 4 7 6 2 1 1 4 8 6 3 2 3 2 2 4 2 2 2 2 3 6 4 1 1 2 3 4 8 10 11 10 11 15 19 22 24
27 26 30 28 25 26 24 27 35 34 32 34 34 22 6 4 8 5 5 5 3 2 4 4 3 7 11 8 4 3 3 2 3 2 2 2 4 4 0 1 2 2 3 6 4 3 3 1 1 3 3 6 4 5 5 4 5 5 7 7 5 4 4 5 3 1 3 0 2 1 1 2 4 4 4 5 6 7 6 8 10 11 12 13 17 20 22 25
28 29 32 26 22 24 22 28 35 31 33 37 27 10 3 7 6 4 6 4 1 2 3 5 7 8 8 5 4 4 3 2 2 2 2 3 6 5 3 2 1 2 4 4 3 4 4 2 4 3 2 4 3 1 2 5 5 3 1 1 3 3 3 4 3 1 1 2 2 1 1 3 2 1 1 1 4 7 6 5 9 11 13 15 18 20 22 25
30 30 30 22 20 21 21 31 34 29 34 32 15 5 7 9 4 4 8 4 1 3 4 6 10 9 4 2 0 3 1 1 2 2 3 5 6 7 7 6 4 2 5 6 2 2 2 1 1 1 1 2 2 2 2 5 5 1 1 0 1 1 2 2 1 0 1 1 2 3 3 3 1 1 1 2 1 4 5 6 10 12 13 16 18 19 22 25
30 29 26 20 20 20 22 32 32 29 34 23 7 6 7 3 2 4 7 5 5 7 9 8 7 5 3 1 1 3 1 2 3 2 3 3 2 5 6 5 5 5 4 5 3 1 2 1 2 2 2 2 1 1 2 1 3 2 2 3 2 1 3 4 1 2 1 3 2 3 4 3 1 3 2 2 2 3 4 8 11 14 15 15 17 19 22 24
30 28 25 22 20 19 25 32 29 30 30 15 6 7 3 1 1 2 5 8 10 13 12 8 3 3 5 4 4 6 3 3 3 2 3 3 2 5 5 2 6 8 4 2 1 2 3 3 2 1 3 2 2 3 4 5 3 2 4 5 3 1 1 2 1 1 0 3 1 2 4 3 3 3 3 4 6 5 6 8 11 15 16 15 17 20 22 24
32 29 25 23 19 19 28 30 26 29 22 8 5 4 1 1 1 1 5 9 12 13 10 6 2 1 5 6 6 8 7 5 4 3 4 3 3 7 9 4 5 9 7 2 1 1 1 3 2 1 1 1 2 1 4 4 5 2 2 4 3 2 2 2 2 2 2 3 2 2 2 3 5 4 4 8 11 9 9 9 10 15 16 16 18 20 21 23
34 27 20 22 21 21 28 27 24 24 13 5 7 3 1 2 1 2 8 9 8 8 8 6 2 0 4 7 7 8 8 7 7 5 4 4 3 6 10 7 4 8 9 4 1 1 1 1 2 1 1 0 1 3 5 4 3 3 2 3 0 2 2 2 2 1 3 3 2 1 1 3 6 5 7 12 14 12 12 10 11 17 18 17 20 22 22 24
31 19 12 22 24 21 26 24 19 16 7 4 6 2 1 2 2 3 8 8 3 2 4 4 3 4 4 3 6 7 6 6 8 6 4 5 4 3 7 8 5 5 5 3 1 2 1 1 2 2 1 2 3 2 4 5 5 3 4 5 3 1 1 1 1 1 1 3 2 2 2 3 2 3 6 8 9 12 14 12 13 17 19 20 23 24 24 24
22 11 8 25 27 22 27 21 11 7 3 2 2 1 1 3 4 4 5 5 2 2 3 3 4 5 5 4 6 6 4 4 8 6 2 5 6 3 7 11 11 9 5 2 2 2 1 1 4 4 2 3 2 1 2 1 1 2 3 4 5 4 3 3 4 1 1 1 1 1 3 3 1 1 2 2 3 7 13 15 15 17 20 23 24 23 23 23
12 5 9 26 28 27 27 14 3 3 2 2 3 4 4 4 4 5 4 3 3 3 3 3 2 3 4 4 4 7 6 4 7 7 3 5 8 4 5 12 17 19 12 3 2 2 2 3 4 3 2 1 2 2 1 2 2 1 1 1 3 3 4 5 5 3 3 1 1 1 3 3 1 1 2 1 1 4 10 16 17 19 23 25 23 22 22 22
7 6 12 24 29 31 23 7 2 3 1 2 4 5 5 4 3 4 3 2 1 1 2 2 1 1 2 2 4 8 10 5 6 9 4 4 5 1 5 13 19 18 10 3 2 4 3 3 4 3 1 0 1 1 1 1 1 2 3 2 2 3 2 1 1 2 4 4 3 2 4 3 2 1 2 3 4 4 9 16 20 22 26 26 23 22 22 22
9 9 9 16 28 31 17 5 7 7 2 3 4 4 3 3 2 4 3 2 1 2 2 2 1 1 2 2 4 8 11 5 5 8 3 2 4 1 7 19 20 14 8 5 7 10 6 3 4 4 2 1 1 2 2 2 3 4 2 2 3 2 4 4 1 1 2 5 6 5 6 4 1 2 1 2 4 6 10 19 25 26 27 27 23 22 22 22
8 7 6 9 21 26 12 1 5 7 6 7 5 4 4 3 2 3 3 3 2 2 3 2 2 3 3 3 3 4 8 3 2 5 2 1 2 2 5 17 19 11 6 4 9 13 7 2 5 6 5 6 6 7 6 5 4 2 2 4 6 7 7 4 2 2 4 4 5 6 7 1 1 1 2 3 6 7 11 18 24 25 27 27 24 23 24 23
3 2 2 5 9 13 5 2 3 7 7 8 6 4 4 3 2 2 4 3 1 2 4 2 2 4 3 4 5 5 7 1 2 4 4 3 2 2 2 12 13 8 3 4 14 15 3 1 6 8 9 9 9 8 4 5 6 6 8 8 8 9 8 4 3 4 5 3 4 9 7 3 3 3 3 5 9 10 11 17 22 25 27 27 25 25 24 24
2 1 2 2 3 4 2 2 3 6 8 9 6 4 5 6 4 2 2 1 3 4 3 3 2 3 4 8 6 4 6 2 2 3 4 3 1 2 1 6 8 7 3 7 16 12 2 3 8 10 12 7 2 3 4 5 8 11 11 10 9 9 10 8 8 9 5 5 7 10 6 6 7 6 6 8 9 9 11 18 25 29 29 27 25 24 24 24
2 2 3 3 3 2 2 3 4 7 10 9 4 4 7 7 6 4 2 1 2 4 1 2 2 2 6 10 6 4 5 3 1 3 3 2 2 2 2 2 3 5 3 6 11 6 2 7 8 8 12 5 4 2 4 5 6 6 8 11 11 11 13 14 15 12 8 8 12 7 8 11 10 8 8 10 13 16 19 26 30 30 29 27 25 25 26 26
3 4 4 4 3 2 4 7 6 7 11 9 3 4 8 10 8 4 2 3 2 2 0 3 4 3 5 7 5 6 7 5 5 4 3 4 4 3 3 2 2 4 3 4 5 2 3 5 5 7 10 5 3 1 2 3 4 4 6 10 12 13 14 17 17 14 11 13 11 3 7 13 9 7 8 14 20 21 20 24 27 27 28 27 27 28 29 29
2 2 4 6 6 4 5 8 7 6 7 7 5 4 6 9 8 4 1 3 4 3 2 4 5 4 3 3 4 4 7 7 6 6 7 6 3 3 4 3 3 3 2 4 3 2 3 3 3 5 6 3 3 2 1 2 2 4 4 6 10 12 13 16 18 15 12 14 8 3 4 10 5 6 7 13 18 15 13 20 26 29 31 30 30 31 31 29
4 3 5 6 4 3 4 5 4 4 6 7 7 6 8 10 9 5 2 2 2 5 5 6 7 5 2 3 4 2 5 6 4 9 16 12 7 8 5 4 8 8 4 4 3 2 4 2 3 4 5 4 1 2 4 4 2 2 3 7 12 13 14 13 11 9 11 14 8 3 6 8 5 8 6 8 13 13 13 20 26 31 33 32 32 33 31 29
7 5 6 5 2 2 2 3 3 4 5 5 4 5 6 7 7 7 4 1 1 5 9 11 9 4 2 5 4 3 8 8 3 10 18 12 7 10 6 6 14 12 7 7 3 1 5 4 3 4 7 4 2 1 5 6 2 4 7 12 17 15 12 8 3 4 11 13 9 7 8 5 7 10 7 5 9 13 17 23 29 34 36 32 30 31 29 27
Wind_Direction
198 203 203 203 206 203 196 192 195 198 199 204 202 197 195 193 194 194 194 195 196 198 196 194 194 193 196 199 199 199 203 210 222 228 233 241 239 239 243 239 231 224 218 199 191 192 193 198 190 180 170 160 160 154 147 143 148 159 185 207 173 167 167 167 165 165 80 132 158 172 187 187 154 169 167 157 172 187 207 220 224 230 226 203 167 190 183 182
197 202 203 206 209 198 191 191 194 196 199 203 201 195 191 189 190 191 191 191 192 192 190 188 188 189 191 193 199 199 198 211 228 235 239 245 239 236 234 229 227 221 213 199 192 191 196 198 184 174 168 156 152 150 144 143 145 141 179 203 180 148 114 148 146 148 72 122 151 168 185 189 158 160 170 181 168 182 199 207 220 231 225 210 180 178 186 185
198 200 203 206 204 193 188 190 192 196 199 202 200 192 188 187 187 189 188 187 186 186 185 184 185 186 187 190 198 199 198 214 236 244 245 238 231 231 226 225 221 213 207 198 191 191 200 197 180 174 168 150 146 152 142 145 155 125 191 199 141 127 87 128 150 154 112 112 147 162 173 179 160 163 176 198 169 189 213 201 207 222 224 220 210 192 193 192
198 199 202 201 198 190 185 189 193 197 200 199 195 189 186 185 185 186 186 185 183 183 183 183 184 185 188 190 193 196 196 218 248 253 253 235 226 225 222 221 214 208 200 193 192 193 203 197 180 176 166 135 140 152 142 152 167 138 185 269 94 143 111 133 177 190 178 139 154 154 160 172 170 176 179 185 189 205 225 223 217 221 220 222 221 212 202 199
198 201 199 194 192 187 184 191 195 194 195 193 190 188 185 182 183 184 184 184 181 182 183 184 186 185 187 187 184 183 182 223 268 261 253 233 223 220 218 214 211 203 191 190 195 195 202 196 183 181 168 127 144 150 139 150 155 133 104 23 75 156 116 130 187 196 182 155 153 153 157 174 171 181 187 195 222 210 204 229 227 225 222 222 223 221 211 204
196 198 194 191 190 187 188 191 190 189 190 190 187 185 183 181 182 182 183 183 181 182 182 184 185 182 182 183 181 175 176 203 290 283 237 222 217 213 210 209 206 194 185 191 196 197 200 192 186 188 163 128 155 149 144 154 162 162 107 87 102 106 86 129 183 182 168 154 154 162 162 170 170 184 199 209 232 234 167 193 169 202 214 216 221 224 219 211
193 191 189 190 190 189 189 189 187 186 187 187 185 183 181 180 181 181 182 181 182 183 183 185 181 178 180 179 179 179 189 209 237 320 232 206 205 204 202 202 197 187 187 193 197 200 195 189 192 185 149 124 162 141 142 150 164 185 121 143 123 88 77 117 162 164 166 168 166 172 162 165 181 191 209 222 234 234 226 214 165 142 182 207 217 222 226 223
191 189 189 193 194 191 189 188 186 184 185 185 183 182 180 179 180 181 181 181 183 184 184 182 177 177 179 179 179 182 202 217 229 278 241 196 195 196 195 194 190 187 191 195 199 198 189 189 192 178 146 127 156 140 144 146 149 199 129 148 129 89 91 103 124 135 150 164 164 171 161 159 193 205 234 240 238 234 235 235 232 236 225 210 215 219 225 228
190 190 190 194 196 193 190 187 185 184 186 184 182 181 179 178 180 180 181 182 184 184 183 180 176 177 177 183 183 184 213 219 223 250 231 192 188 190 191 188 188 191 195 196 199 197 190 191 191 180 158 145 147 144 158 165 190 160 130 136 132 103 101 101 110 118 131 144 154 164 147 147 186 219 249 248 247 242 238 239 241 243 244 236 225 222 223 227
192 191 191 193 194 194 191 185 183 185 185 183 182 180 177 179 180 180 182 183 184 183 181 179 176 176 178 183 180 188 221 218 219 230 217 191 187 186 187 187 188 193 198 194 197 198 192 192 193 182 161 151 144 145 165 179 157 139 124 113 113 108 107 104 115 116 122 132 158 178 147 126 155 211 243 237 238 241 238 237 237 240 241 236 234 228 223 225
193 194 193 193 193 193 191 183 182 185 184 182 181 179 177 179 180 181 182 182 181 179 179 179 177 177 181 184 181 194 215 214 218 222 220 196 188 184 184 187 191 196 199 193 195 199 196 199 193 179 163 157 144 125 142 137 128 134 126 107 94 102 101 84 110 118 115 122 144 167 149 125 142 208 234 205 200 219 242 234 230 233 235 232 232 231 225 224
191 194 193 194 193 193 190 182 182 184 182 180 179 178 178 179 180 181 181 179 178 177 178 178 177 178 180 187 193 200 205 209 214 215 221 202 188 184 184 186 192 198 197 195 196 198 203 206 192 182 162 155 145 123 134 128 128 133 131 117 110 129 105 55 64 109 105 132 124 128 203 207 194 217 228 215 219 236 251 242 228 228 229 227 229 231 229 226
189 192 192 194 192 189 187 182 181 182 179 177 177 178 178 179 180 180 178 176 176 175 176 177 177 178 178 188 201 203 203 206 203 203 210 201 188 186 186 186 190 193 194 197 198 198 203 199 193 184 154 149 138 130 134 122 128 133 130 123 135 167 150 48 23 25 149 159 138 152 260 221 188 220 233 226 229 237 239 237 232 229 228 225 226 231 233 230
187 190 190 191 188 185 184 180 179 179 175 175 176 177 179 178 178 177 176 174 174 173 173 176 174 175 181 190 201 205 206 200 192 195 199 194 188 186 186 186 186 189 193 195 197 200 195 187 189 173 149 143 126 123 121 101 118 130 139 183 150 190 173 71 31 334 186 155 145 197 255 246 157 177 230 238 233 235 245 242 240 238 232 228 227 231 235 236
185 188 188 189 188 186 182 177 176 174 171 172 174 175 175 175 175 174 173 172 171 171 171 173 172 172 184 196 201 206 208 203 195 195 192 188 188 187 184 184 183 186 190 192 198 197 185 180 174 143 128 133 131 125 115 89 78 104 166 170 175 214 165 85 48 9 3 134 142 212 248 264 260 101 177 225 217 224 247 260 257 252 245 237 231 232 235 238
184 188 189 189 190 188 181 174 171 170 168 170 171 170 170 171 171 170 170 169 168 169 169 170 172 171 179 194 195 201 204 205 201 194 188 185 187 187 182 180 181 182 182 185 188 179 172 170 148 124 120 135 142 135 126 130 136 229 224 167 162 199 181 134 97 28 9 117 185 236 270 281 56 66 133 153 156 218 274 271 262 256 254 248 240 237 236 236
184 188 190 189 190 187 179 173 168 167 167 167 165 163 164 165 167 167 166 166 165 166 167 169 171 174 192 198 189 193 197 199 199 194 185 181 182 184 181 175 175 177 170 167 167 161 161 158 137 126 125 142 159 146 143 171 177 168 265 138 147 198 186 177 142 51 1 233 211 196 262 261 215 165 235 221 270 297 293 281 272 266 260 254 252 248 244 241
183 187 189 187 188 183 178 173 167 167 166 159 156 157 159 161 161 162 161 160 156 155 162 169 171 178 217 196 188 190 192 192 192 189 180 176 174 178 179 173 171 169 158 154 158 156 152 140 135 142 137 147 172 169 172 185 173 173 182 162 147 199 219 224 147 78 356 221 219 195 238 257 255 258 265 269 278 286 284 280 279 274 265 257 254 252 251 250
181 185 187 186 187 183 178 173 168 166 158 150 150 150 150 150 149 152 158 155 151 149 161 178 178 181 201 182 181 181 180 181 183 181 175 171 167 171 176 172 168 162 155 155 161 161 144 128 149 167 162 175 184 188 188 167 166 170 167 157 153 163 208 249 95 40 350 197 218 220 236 260 265 267 270 271 278 282 277 277 277 272 266 261 258 256 254 253
178 182 184 185 187 184 177 172 169 162 154 151 151 146 143 144 137 147 159 157 161 171 189 177 180 181 122 166 169 166 163 167 175 174 172 170 164 165 168 163 162 161 162 162 155 161 159 161 180 179 174 176 172 134 97 102 140 148 143 138 144 158 159 101 90 55 10 226 219 226 257 270 270 274 274 268 272 275 271 271 272 269 265 262 260 259 255 253
177 178 181 183 184 182 177 172 168 160 155 156 156 151 154 155 149 162 160 153 166 181 171 169 177 189 148 162 163 160 154 153 169 171 170 169 164 162 162 160 162 167 163 122 113 126 181 193 186 165 145 141 129 102 99 98 117 136 150 154 155 207 124 79 74 75 30 253 184 112 272 267 264 269 270 263 252 258 261 263 267 268 266 263 261 259 256 254
177 178 177 179 181 180 178 174 167 160 155 158 160 159 165 163 162 165 155 120 98 148 160 162 165 154 148 156 159 158 152 140 161 172 170 168 167 167 164 167 174 162 134 129 130 134 197 204 154 110 103 99 93 104 104 93 109 129 143 157 170 172 124 101 119 80 29 260 185 107 269 270 266 265 269 270 260 257 261 259 261 265 265 264 262 259 256 255
174 176 173 175 177 178 179 174 165 160 159 163 163 161 166 164 163 161 148 106 90 119 156 158 133 132 143 149 155 155 150 139 157 173 173 170 171 174 167 166 159 139 158 183 170 166 187 204 99 129 141 122 106 115 113 104 111 120 136 156 161 147 154 169 154 133 47 7 326 272 272 277 266 259 260 279 286 282 279 259 255 260 262 262 258 255 254 253
168 170 172 172 174 178 177 169 163 164 165 166 163 159 166 165 158 157 141 95 101 92 159 163 133 139 145 149 156 154 151 146 158 172 175 173 170 170 164 151 135 144 172 188 176 163 145 7 94 147 162 141 133 145 149 149 146 65 187 167 143 164 193 31 119 137 136 146 351 312 268 260 250 245 184 134 320 331 44 92 148 267 258 257 254 251 249 243
164 164 169 169 172 176 169 164 166 169 169 167 163 160 165 164 157 157 139 81 119 73 154 167 153 150 151 155 159 152 147 143 157 169 175 176 169 158 149 145 150 164 165 152 157 159 78 31 147 143 140 143 142 157 179 182 162 182 222 200 161 168 155 103 129 149 179 193 82 341 260 219 128 241 183 100 344 92 73 72 70 39 29 241 225 229 227 215
163 161 164 168 172 169 162 166 171 171 171 169 164 160 164 162 157 159 142 74 159 117 146 164 164 165 162 160 157 147 142 145 162 169 173 177 174 160 146 139 117 145 155 138 139 158 83 97 157 148 145 143 149 167 187 197 166 173 204 148 139 147 135 134 155 173 201 186 85 338 261 238 250 214 152 19 1 122 90 68 60 40 46 68 116 137 149 159
167 164 163 167 171 167 165 172 175 172 173 170 163 161 162 159 159 164 144 83 183 162 145 154 162 173 171 161 157 151 146 154 157 167 173 175 176 169 161 155 107 124 156 146 149 137 112 132 157 146 146 147 165 175 188 197 177 161 149 133 139 135 137 149 157 168 28 62 147 46 324 281 261 187 122 322 158 129 109 82 58 39 45 62 93 115 125 133
174 171 166 167 171 172 174 178 178 173 170 166 162 161 158 157 163 168 142 146 166 141 144 149 152 166 165 158 159 147 127 145 147 170 176 170 169 170 167 167 137 119 122 184 182 150 104 165 174 154 155 167 177 164 167 180 161 97 148 125 128 116 116 134 130 114 64 280 209 117 18 264 245 180 134 226 176 155 134 91 61 40 45 68 92 107 117 121
182 179 173 170 170 175 180 184 181 172 163 161 162 160 156 158 164 161 155 186 142 118 140 141 141 156 154 149 147 120 123 140 122 155 166 165 167 170 149 146 130 108 69 18 138 88 0 193 176 159 171 165 120 25 358 268 66 141 153 108 92 79 79 84 85 111 107 251 219 107 12 259 247 210 168 203 216 188 160 106 69 58 62 80 96 105 112 116
189 186 178 171 170 176 182 184 178 168 159 162 163 158 156 158 160 149 190 190 137 117 133 138 146 155 151 139 102 91 119 107 96 133 145 143 149 136 117 128 122 109 70 38 69 62 0 120 108 25 101 125 106 60 22 355 114 142 152 111 95 73 64 67 40 80 188 239 204 54 348 286 264 240 181 209 252 183 150 132 110 98 89 89 101 108 111 114
189 186 178 172 173 179 179 176 173 165 160 164 161 156 154 149 146 165 168 153 129 131 137 146 152 155 157 151 126 122 92 57 127 143 145 122 124 121 119 128 118 108 109 83 77 40 70 110 103 80 113 125 116 74 46 45 126 146 161 130 111 84 92 111 76 176 228 222 84 31 333 274 237 239 74 4 292 173 145 139 134 120 105 99 107 111 112 114
178 177 170 170 176 178 175 172 168 162 162 164 159 158 155 129 180 182 150 142 152 163 171 172 172 164 163 146 118 136 108 99 161 156 149 141 145 146 150 178 156 139 165 157 128 86 107 97 24 86 139 172 144 99 78 58 220 220 157 151 145 129 161 198 177 206 233 226 41 9 333 256 244 261 265 177 155 162 130 121 128 125 117 114 114 114 115 116
170 169 165 169 175 171 168 170 166 162 162 162 159 160 156 161 183 173 146 163 163 138 141 138 141 158 154 136 133 149 98 112 172 157 123 143 165 167 341 303 153 139 165 153 140 148 136 107 180 132 171 226 207 136 143 184 200 185 161 165 170 146 171 199 174 247 259 196 47 349 324 240 251 271 235 193 154 159 142 117 123 125 123 123 121 119 117 117
166 163 163 166 169 167 166 167 167 163 160 160 160 156 151 178 179 122 149 182 23 75 104 109 123 138 143 138 163 164 85 51 160 134 110 151 168 183 201 202 222 32 105 133 156 168 167 181 181 155 150 200 217 222 150 135 153 185 157 154 169 160 191 194 176 223 207 102 98 157 243 218 203 30 275 141 130 168 182 148 135 133 133 130 126 122 119 118
157 157 159 159 165 170 169 167 169 166 162 162 160 165 180 183 177 145 159 164 104 111 94 113 132 136 126 43 113 190 90 85 168 123 143 173 178 186 188 186 206 187 139 156 174 162 174 152 85 11 350 170 185 294 358 104 128 173 13 103 201 173 125 114 79 96 105 82 147 177 245 254 247 303 310 351 109 188 206 175 152 148 147 139 132 127 124 122
152 156 159 162 170 174 170 170 172 169 166 165 163 188 195 183 171 173 151 130 140 136 118 124 137 139 142 80 167 233 334 104 165 172 170 193 214 195 192 181 186 202 181 159 151 155 166 105 10 5 53 48 22 329 352 84 148 154 160 180 188 68 99 115 112 55 6 254 183 170 241 255 249 231 185 147 174 176 186 180 164 158 155 147 139 135 130 126
156 161 167 170 171 174 171 170 173 172 171 177 188 186 197 55 123 170 130 121 138 140 133 140 165 160 156 156 175 185 166 121 165 198 168 172 224 190 192 209 183 193 213 156 152 220 160 114 16 352 100 59 9 87 69 29 38 144 176 164 141 73 71 123 155 101 188 249 188 172 233 230 204 205 129 142 179 178 176 177 162 159 162 156 148 142 136 132
164 164 168 172 172 174 172 170 173 173 172 188 195 170 62 124 103 124 142 132 138 148 152 155 170 195 165 166 173 171 169 162 167 184 162 173 220 182 175 193 187 190 201 173 129 219 138 111 77 358 97 68 349 150 125 42 23 30 165 140 133 209 195 167 178 159 183 229 224 195 240 260 221 195 153 174 188 183 174 171 160 163 169 165 155 149 141 136
165 162 162 170 173 173 172 172 173 172 172 202 193 173 83 131 75 174 159 140 136 153 165 161 147 220 177 169 159 160 178 175 159 168 173 183 213 183 176 182 177 188 189 170 151 158 108 126 135 70 333 51 317 226 192 161 69 46 116 134 10 291 207 180 162 177 209 208 217 197 164 234 225 201 187 189 187 178 169 168 169 171 173 168 159 152 145 140
159 156 154 165 169 171 172 169 167 171 186 216 187 161 107 123 104 182 165 147 128 140 167 172 156 151 159 158 152 161 182 176 163 179 197 181 186 195 191 183 152 158 165 125 103 144 110 186 144 103 333 213 185 216 215 183 151 146 164 169 179 135 47 247 148 68 254 197 196 228 232 235 216 198 204 194 180 173 169 170 171 169 169 166 159 154 149 144
152 143 148 163 165 165 164 161 163 180 199 204 157 100 153 152 129 157 165 143 86 53 118 136 144 151 145 146 159 163 161 159 173 189 200 184 198 224 203 188 159 143 139 107 138 166 149 129 131 132 178 196 188 326 306 275 176 171 183 186 181 155 134 190 191 138 6 237 189 203 267 267 145 150 226 186 157 176 174 169 164 164 168 165 159 154 150 145
143 120 152 163 164 161 159 157 165 178 168 155 135 112 136 146 129 144 162 131 78 61 89 92 102 137 141 145 151 155 154 155 178 189 205 206 210 221 202 187 165 156 156 141 143 144 92 98 114 127 176 217 321 337 288 289 313 333 280 233 180 173 182 199 206 172 128 120 95 96 282 277 94 100 235 230 245 202 176 164 158 163 167 164 159 156 153 149
110 99 149 163 165 163 160 164 186 165 165 145 112 88 113 132 124 139 164 160 89 77 101 103 121 137 145 149 142 158 166 165 183 189 193 202 203 200 174 171 162 159 158 130 140 147 114 107 112 96 79 1 314 305 114 347 285 235 239 211 172 198 200 141 216 161 147 168 161 160 253 250 120 120 234 251 246 205 175 165 161 165 168 166 164 163 158 155
97 97 127 158 167 169 168 185 188 174 158 140 112 86 102 87 103 145 165 182 159 143 128 113 141 139 136 145 142 167 175 174 201 200 188 175 182 127 165 168 165 167 174 179 177 174 174 150 126 123 123 135 193 205 196 204 214 223 217 165 170 146 93 83 103 146 193 200 175 190 238 239 114 108 164 218 198 177 176 174 169 169 171 170 170 169 165 161
105 95 98 139 165 175 180 222 184 167 147 142 132 131 125 63 53 147 143 135 132 135 124 118 124 104 112 126 99 156 180 165 182 189 161 142 166 55 162 176 177 178 186 190 167 165 174 176 155 158 159 172 194 203 203 189 180 209 187 173 187 171 152 158 141 150 220 200 166 205 235 239 84 150 140 151 166 164 172 179 177 175 174 173 174 175 172 168
117 108 111 106 145 169 170 32 139 159 156 149 140 150 148 113 94 110 107 117 134 101 86 92 132 99 106 147 122 159 191 160 32 175 166 157 160 24 163 181 186 184 171 166 160 155 141 234 186 196 197 195 200 200 184 127 141 190 196 179 182 181 176 160 123 190 210 148 173 224 235 238 212 195 166 170 177 174 172 178 183 182 179 177 177 178 177 174
98 139 142 106 108 130 82 39 146 158 165 163 155 158 148 130 124 115 83 88 180 153 73 38 149 139 155 161 144 162 181 143 58 156 150 140 133 17 94 163 183 183 143 160 164 150 88 204 198 214 219 216 187 164 158 141 172 200 191 169 169 175 173 174 199 214 165 126 228 230 211 229 223 189 196 197 182 181 181 182 186 185 182 181 179 179 179 178
96 119 110 118 138 140 139 160 160 157 166 170 156 141 150 145 148 156 118 54 171 180 77 47 196 205 169 164 154 141 149 129 117 150 129 139 145 94 72 98 178 187 142 158 170 147 146 203 199 207 215 219 55 110 177 168 181 194 179 173 170 169 175 189 211 213 160 185 240 219 174 217 217 179 202 204 185 189 192 189 187 184 181 181 180 180 182 183
98 110 102 102 102 80 116 131 135 150 163 164 148 158 168 164 160 155 110 104 153 225 219 155 184 195 168 164 151 149 163 169 178 186 164 151 151 134 127 121 184 198 153 147 173 169 183 197 177 186 211 209 77 75 212 161 164 173 178 180 171 171 186 197 212 215 195 214 238 161 176 225 212 170 206 210 199 196 190 187 188 184 183 183 183 186 187 187
117 115 110 102 89 76 106 129 140 148 156 165 171 176 176 169 162 150 98 135 158 183 195 158 151 141 147 159 145 170 192 179 175 190 171 152 166 183 177 175 161 162 164 154 160 189 202 197 134 152 206 210 95 59 48 110 166 170 165 178 177 182 195 206 217 216 210 226 234 120 235 250 204 163 214 214 204 196 179 185 192 191 189 187 188 192 191 190
139 132 127 116 85 64 111 133 152 152 161 182 184 174 179 181 168 141 86 9 145 165 167 149 136 119 97 139 144 180 192 174 171 184 173 165 174 180 185 185 160 151 164 174 162 166 188 190 95 132 201 213 78 99 127 91 67 138 174 194 190 194 201 207 216 206 202 219 214 168 256 258 167 160 206 210 198 194 190 193 195 197 196 194 193 195 195 194
130 131 140 133 79 18 104 126 160 169 169 181 173 162 175 177 160 149 146 25 40 157 164 156 144 121 114 155 168 186 179 174 171 179 178 176 170 170 168 163 164 164 165 167 164 157 170 163 129 171 200 203 28 110 137 106 107 223 225 205 195 201 205 194 201 214 207 210 202 201 235 233 143 163 190 194 192 202 208 204 199 200 200 200 199 199 198 198